• en France
  • Liste des pays
  • À 7 jours
  • Température de l'eau
  • Carte satellitaire
  • Carte météo
  • Widgets météo
  • user-avatar
    Se connecter

    Météo par heure à Balchik

    Ce jour, 23 Juillet, Lundi

    Heure Température Précipitation Vent Pression Humidité
    00:00 +23°C° 0,1 mm 2 m/s 733 mmHg 84%
    01:00 +23°C° 0,1 mm 2 m/s 733 mmHg 86%
    02:00 +22°C° 0 mm 1 m/s 733 mmHg 87%
    03:00 +22°C° 0,2 mm 1 m/s 733 mmHg 88%
    04:00 +22°C° 0,2 mm 1 m/s 732 mmHg 88%
    05:00 +21°C° 0,2 mm 1 m/s 732 mmHg 89%
    06:00 +23°C° 0,3 mm 1 m/s 732 mmHg 84%
    07:00 +24°C° 0,3 mm 1 m/s 733 mmHg 78%
    08:00 +26°C° 0,3 mm 1 m/s 733 mmHg 73%
    09:00 +26°C° 1 mm 2 m/s 732 mmHg 69%
    10:00 +27°C° 1 mm 2 m/s 732 mmHg 64%
    11:00 +28°C° 1 mm 2 m/s 732 mmHg 60%
    12:00 +28°C° 0,8 mm 2 m/s 732 mmHg 60%
    13:00 +28°C° 0,8 mm 2 m/s 732 mmHg 60%
    14:00 +28°C° 0,8 mm 2 m/s 732 mmHg 60%
    15:00 +28°C° 0,9 mm 2 m/s 731 mmHg 62%
    16:00 +27°C° 0,9 mm 2 m/s 731 mmHg 65%
    17:00 +27°C° 0,9 mm 2 m/s 731 mmHg 68%
    18:00 +26°C° 0,2 mm 2 m/s 731 mmHg 71%
    19:00 +25°C° 0,2 mm 2 m/s 730 mmHg 75%
    20:00 +24°C° 0,2 mm 1 m/s 730 mmHg 78%
    21:00 +23°C° 0,6 mm 1 m/s 730 mmHg 80%
    22:00 +22°C° 0,6 mm 1 m/s 730 mmHg 81%
    23:00 +22°C° 0,6 mm 1 m/s 730 mmHg 82%

    Demain, 24 Juillet, Mardi

    Heure Température Précipitation Vent Pression Humidité
    00:00 +22°C° 0,5 mm 1 m/s 730 mmHg 83%
    01:00 +21°C° 0,5 mm 1 m/s 730 mmHg 84%
    02:00 +21°C° 0,5 mm 1 m/s 730 mmHg 85%
    03:00 +21°C° 1,7 mm 1 m/s 730 mmHg 86%
    04:00 +19°C° 1,7 mm 2 m/s 730 mmHg 88%
    05:00 +19°C° 1,7 mm 2 m/s 730 mmHg 90%
    06:00 +20°C° 1,9 mm 2 m/s 730 mmHg 89%
    07:00 +20°C° 1,9 mm 2 m/s 730 mmHg 88%
    08:00 +21°C° 1,9 mm 2 m/s 730 mmHg 87%
    09:00 +23°C° 0,9 mm 2 m/s 730 mmHg 83%
    10:00 +24°C° 0,9 mm 3 m/s 731 mmHg 78%
    11:00 +25°C° 0,9 mm 3 m/s 731 mmHg 74%
    12:00 +25°C° 1,9 mm 3 m/s 731 mmHg 72%
    13:00 +26°C° 1,9 mm 3 m/s 731 mmHg 70%
    14:00 +26°C° 1,9 mm 3 m/s 731 mmHg 68%
    15:00 +27°C° 0,2 mm 2 m/s 730 mmHg 67%
    16:00 +27°C° 0,2 mm 2 m/s 730 mmHg 66%
    17:00 +27°C° 0,2 mm 2 m/s 730 mmHg 65%
    18:00 +26°C° 0,3 mm 2 m/s 730 mmHg 69%
    19:00 +24°C° 0,3 mm 2 m/s 731 mmHg 74%
    20:00 +23°C° 0,3 mm 2 m/s 731 mmHg 79%
    21:00 +23°C° 0,9 mm 2 m/s 731 mmHg 81%
    22:00 +21°C° 0,9 mm 2 m/s 731 mmHg 84%
    23:00 +21°C° 0,9 mm 1 m/s 731 mmHg 87%

    Après-demain, 25 Juillet, Mercredi

    Heure Température Précipitation Vent Pression Humidité
    00:00 +20°C° 0 mm 2 m/s 731 mmHg 88%
    01:00 +20°C° 0 mm 2 m/s 731 mmHg 88%
    02:00 +20°C° 0 mm 3 m/s 731 mmHg 89%
    03:00 +19°C° 0 mm 3 m/s 731 mmHg 90%
    04:00 +19°C° 0 mm 3 m/s 731 mmHg 92%
    05:00 +19°C° 0 mm 3 m/s 731 mmHg 93%
    06:00 +20°C° 0 mm 3 m/s 731 mmHg 90%
    07:00 +21°C° 0 mm 3 m/s 732 mmHg 86%
    08:00 +22°C° 0 mm 4 m/s 732 mmHg 82%
    09:00 +25°C° 0,3 mm 4 m/s 732 mmHg 76%
    10:00 +26°C° 0,3 mm 4 m/s 732 mmHg 70%
    11:00 +28°C° 0,3 mm 3 m/s 733 mmHg 63%
    12:00 +28°C° 0,1 mm 3 m/s 733 mmHg 60%
    13:00 +29°C° 0,1 mm 3 m/s 732 mmHg 56%
    14:00 +30°C° 0,1 mm 2 m/s 732 mmHg 52%
    15:00 +30°C° 0,1 mm 2 m/s 732 mmHg 53%
    16:00 +29°C° 0,1 mm 2 m/s 732 mmHg 55%
    17:00 +29°C° 0,1 mm 2 m/s 732 mmHg 56%
    18:00 +28°C° 0,4 mm 2 m/s 732 mmHg 62%
    19:00 +26°C° 0,4 mm 2 m/s 732 mmHg 68%
    20:00 +25°C° 0,4 mm 1 m/s 733 mmHg 74%
    21:00 +24°C° 0,1 mm 2 m/s 733 mmHg 76%
    22:00 +23°C° 0,1 mm 2 m/s 733 mmHg 78%
    23:00 +23°C° 0,1 mm 2 m/s 733 mmHg 80%

    26 Juillet, Jeudi

    Heure Température Précipitation Vent Pression Humidité
    00:00 +21°C° 0,1 mm 2 m/s 733 mmHg 82%
    01:00 +21°C° 0,1 mm 2 m/s 733 mmHg 84%
    02:00 +20°C° 0,1 mm 2 m/s 733 mmHg 86%
    03:00 +20°C° 0 mm 3 m/s 733 mmHg 87%
    04:00 +20°C° 0 mm 3 m/s 733 mmHg 89%
    05:00 +20°C° 0 mm 3 m/s 733 mmHg 91%
    06:00 +21°C° 0 mm 3 m/s 733 mmHg 86%
    07:00 +24°C° 0 mm 3 m/s 734 mmHg 81%
    08:00 +25°C° 0 mm 3 m/s 734 mmHg 76%
    09:00 +26°C° 0,6 mm 3 m/s 734 mmHg 71%
    10:00 +28°C° 0,6 mm 3 m/s 734 mmHg 65%
    11:00 +29°C° 0,6 mm 3 m/s 734 mmHg 59%
    12:00 +30°C° 0,5 mm 2 m/s 734 mmHg 57%
    13:00 +30°C° 0,5 mm 2 m/s 734 mmHg 54%
    14:00 +31°C° 0,5 mm 2 m/s 734 mmHg 51%
    15:00 +31°C° 0,4 mm 2 m/s 734 mmHg 52%
    16:00 +31°C° 0,4 mm 2 m/s 734 mmHg 53%
    17:00 +30°C° 0,4 mm 2 m/s 734 mmHg 55%
    18:00 +29°C° 0,3 mm 2 m/s 734 mmHg 61%
    19:00 +27°C° 0,3 mm 1 m/s 734 mmHg 67%
    20:00 +26°C° 0,3 mm 1 m/s 734 mmHg 73%
    21:00 +25°C° 0 mm 1 m/s 734 mmHg 74%
    22:00 +24°C° 0 mm 1 m/s 734 mmHg 76%
    23:00 +24°C° 0 mm 1 m/s 734 mmHg 77%

    27 Juillet, Vendredi

    Heure Température Précipitation Vent Pression Humidité
    00:00 +24°C° 0 mm 1 m/s 734 mmHg 77%
    01:00 +23°C° 0 mm 1 m/s 734 mmHg 77%
    02:00 +23°C° 0 mm 1 m/s 734 mmHg 77%
    03:00 +23°C° 0 mm 2 m/s 734 mmHg 78%
    04:00 +23°C° 0 mm 2 m/s 734 mmHg 78%
    05:00 +21°C° 0 mm 2 m/s 734 mmHg 79%
    06:00 +24°C° 0 mm 2 m/s 734 mmHg 75%
    07:00 +25°C° 0 mm 2 m/s 735 mmHg 71%
    08:00 +27°C° 0 mm 2 m/s 735 mmHg 67%
    09:00 +28°C° 0,4 mm 2 m/s 735 mmHg 62%
    10:00 +29°C° 0,4 mm 2 m/s 735 mmHg 58%
    11:00 +31°C° 0,4 mm 2 m/s 735 mmHg 53%
    12:00 +31°C° 0,1 mm 2 m/s 735 mmHg 51%
    13:00 +32°C° 0,1 mm 2 m/s 735 mmHg 49%
    14:00 +32°C° 0,1 mm 2 m/s 734 mmHg 47%
    15:00 +32°C° 0 mm 2 m/s 734 mmHg 49%
    16:00 +32°C° 0 mm 2 m/s 734 mmHg 51%
    17:00 +32°C° 0 mm 2 m/s 734 mmHg 52%
    18:00 +30°C° 0 mm 2 m/s 734 mmHg 57%
    19:00 +28°C° 0 mm 1 m/s 734 mmHg 62%
    20:00 +27°C° 0 mm 1 m/s 734 mmHg 67%
    21:00 +26°C° 0,1 mm 1 m/s 734 mmHg 69%
    22:00 +26°C° 0,1 mm 1 m/s 734 mmHg 71%
    23:00 +25°C° 0,1 mm 1 m/s 734 mmHg 73%

    28 Juillet, Samedi

    Heure Température Précipitation Vent Pression Humidité
    00:00 +25°C° 0,1 mm 1 m/s 734 mmHg 74%
    01:00 +24°C° 0,1 mm 1 m/s 733 mmHg 75%
    02:00 +24°C° 0,1 mm 1 m/s 733 mmHg 76%
    03:00 +24°C° 0,4 mm 1 m/s 733 mmHg 78%
    04:00 +23°C° 0,4 mm 2 m/s 733 mmHg 80%
    05:00 +23°C° 0,4 mm 2 m/s 733 mmHg 82%
    06:00 +24°C° 0,3 mm 2 m/s 733 mmHg 79%
    07:00 +25°C° 0,3 mm 2 m/s 734 mmHg 76%
    08:00 +27°C° 0,3 mm 2 m/s 734 mmHg 73%
    09:00 +28°C° 1,2 mm 2 m/s 734 mmHg 68%
    10:00 +29°C° 1,2 mm 2 m/s 734 mmHg 62%
    11:00 +31°C° 1,2 mm 2 m/s 734 mmHg 56%
    12:00 +31°C° 0 mm 2 m/s 733 mmHg 54%
    13:00 +32°C° 0 mm 2 m/s 733 mmHg 51%
    14:00 +32°C° 0 mm 2 m/s 733 mmHg 49%
    15:00 +32°C° 0 mm 2 m/s 733 mmHg 51%
    16:00 +32°C° 0 mm 2 m/s 733 mmHg 52%
    17:00 +32°C° 0 mm 1 m/s 733 mmHg 54%
    18:00 +30°C° 0 mm 1 m/s 733 mmHg 58%
    19:00 +29°C° 0 mm 1 m/s 733 mmHg 62%
    20:00 +27°C° 0 mm 1 m/s 733 mmHg 67%
    21:00 +27°C° 0,8 mm 1 m/s 733 mmHg 69%
    22:00 +24°C° 0,8 mm 0 m/s 733 mmHg 72%
    23:00 +23°C° 0,8 mm 0 m/s 733 mmHg 75%
    Voir plus